World > North America > United States > Texas > Piney Point Village  

Piney Point Village, TX Hourly Weather Updates

Feedback E-mail the Weather

Quick Clicks

Piney Point Village, TX Weather Maps

°F °C°F °C
Piney Point Village Weather Map
UTC Time: 4/22/2024, 02:14
Your Time:

Piney Point Village, TX Regional Weather

Expires:202404220300;;159834
ASUS44 KSJT 220210
RWRSJT
WEST CENTRAL TEXAS REGIONAL WEATHER ROUNDUP
NATIONAL WEATHER SERVICE SAN ANGELO TX
900 PM CDT SUN APR 21 2024

NOTE: "FAIR" INDICATES FEW OR NO CLOUDS BELOW 12,000 FEET WITH NO
SIGNIFICANT WEATHER AND/OR OBSTRUCTIONS TO VISIBILITY.


TXZ163-177-195>197-199-213-226-237-220300-
SOUTHEAST TEXAS
  
CITY           SKY/WX    TMP DP  RH WIND       PRES   REMARKS
COLLEGE STN    CLEAR     60  48  64 N7        30.22R TC  16           
CALDWELL       CLEAR     59  46  60 N5        30.24S TC  15           
CROCKETT       CLEAR     57  50  77 CALM      30.22S TC  14           
BRENHAM        CLEAR     60  51  71 N3        30.22S TC  16           
HUNTSVILLE     CLEAR     60  49  66 N5        30.21R TC  16           
CONROE         CLEAR     56  50  80 N3        30.21R TC  13           
HOUSTON BUSH   PTCLDY    64  48  56 N6        30.20R TC  18           
HOUSTON HOBBY  PTCLDY    66  48  52 N12       30.19R TC  19           
PERLAND        CLEAR     65  48  54 N9        30.20R TC  18           
WHARTON        CLEAR    N/A N/A N/A N7        30.21R                  
$$


SKY/WX - Weather  TMP - Temperature  DP - Dew Point  RH - Humidity
WIND - Wind Direction/Speed PRES - Barometric Pressure VSB - Visibility
WCI - Wind Chill Index E13G22 Wind - East Wind 13 mph/Gusts of 22 mph

Trending Headlines

Trending Entertainment Headlines

Piney Point Village Radar Loop

Use the map search tool if you want to place a location marker on the radar map...

Piney Point Village Quick Facts

National Two Day Weather Forecast


E-mail the Piney Point Village Weather Forecast

Voice your opinion or tell us about page issues...